CW2674 Weather Reports


Display with metric or nautical units.
time (UTC)temp
F
wind
direction
speed
MPH
gust
MPH
rain 1hr
in
rain 24hr
in
rain mn
in
humidity
%
barometer
mb
20260502130406 63 39 1.0 2.0 0.00 0.00 0.00 37 1012.0
20260502071404 73 232 1.0 3.0 0.00 0.00 0.00 22 1009.7
20260502070404 72 228 1.0 3.0 0.00 0.00 0.00 26 1009.6
20260502064404 73 228 1.0 3.0 0.00 0.00 0.00 25 1009.6
20260502063405 73 228 0.0 2.0 0.00 0.00 0.00 24 1009.6
20260502061406 74 228 0.0 3.0 0.00 0.00 0.00 24 1009.3
20260502060406 75 228 2.0 5.0 0.00 0.00 0.00 24 1009.2
20260502054404 76 230 2.0 3.0 0.00 0.00 0.00 24 1009.2
20260502053405 75 231 1.0 3.0 0.00 0.00 0.00 24 1009.2
20260502051404 76 231 0.0 2.0 0.00 0.00 0.00 24 1009.0
20260502050405 76 231 0.0 3.0 0.00 0.00 0.00 24 1009.1
20260502044405 78 231 1.0 2.0 0.00 0.00 0.00 23 1008.9
20260502041404 81 231 1.0 3.0 0.00 0.00 0.00 20 1008.6
20260502040404 82 231 2.0 5.0 0.00 0.00 0.00 20 1008.5
20260502034404 82 234 2.0 5.0 0.00 0.00 0.00 19 1008.3
20260502033405 83 234 2.0 5.0 0.00 0.00 0.00 19 1008.3
20260502030404 84 223 2.0 6.0 0.00 0.00 0.00 19 1007.9
20260502024405 85 221 3.0 7.0 0.00 0.00 0.00 19 1007.7
20260502023405 85 210 3.0 7.0 0.00 0.00 0.00 19 1007.5
20260502021405 86 209 3.0 7.0 0.00 0.00 0.00 18 1007.4
20260501223404 92 244 3.0 12.0 0.00 0.00 0.00 19 1008.1
20260501221404 92 200 3.0 12.0 0.00 0.00 0.00 20 1008.4
20260501220406 92 221 3.0 12.0 0.00 0.00 0.00 20 1008.5
20260501214406 91 257 5.0 12.0 0.00 0.00 0.00 20 1008.9
20260501213404 92 162 4.0 9.0 0.00 0.00 0.00 19 1009.0
20260501211404 91 225 4.0 10.0 0.00 0.00 0.00 18 1009.3
20260501210405 90 227 4.0 12.0 0.00 0.00 0.00 20 1009.6
20260501203405 89 288 2.0 12.0 0.00 0.00 0.00 21 1009.9
20260501201404 89 231 2.0 9.0 0.00 0.00 0.00 22 1010.1
20260501194404 88 257 3.0 8.0 0.00 0.00 0.00 24 1010.5
20260501193403 88 318 2.0 13.0 0.00 0.00 0.00 23 1010.6
20260501191405 87 278 4.0 9.0 0.00 0.00 0.00 23 1010.9
20260501190405 87 239 6.0 12.0 0.00 0.00 0.00 24 1011.1
20260501184405 86 184 3.0 6.0 0.00 0.00 0.00 25 1011.3
20260501183404 86 253 2.0 8.0 0.00 0.00 0.00 25 1011.4
20260501181405 85 169 4.0 9.0 0.00 0.00 0.00 26 1011.7
20260501180404 84 187 2.0 8.0 0.00 0.00 0.00 27 1011.9
20260501174405 83 167 2.0 6.0 0.00 0.00 0.00 28 1012.0
20260501171405 81 205 3.0 7.0 0.00 0.00 0.00 31 1012.2
20260501170404 81 177 2.0 7.0 0.00 0.00 0.00 30 1012.2
20260501164405 79 170 1.0 6.0 0.00 0.00 0.00 32 1012.1
20260501163404 79 155 2.0 8.0 0.00 0.00 0.00 33 1012.2
20260501160403 77 194 0.0 8.0 0.00 0.00 0.00 34 1012.1
20260501154403 76 208 3.0 9.0 0.00 0.00 0.00 35 1011.9
20260501153404 75 224 3.0 7.0 0.00 0.00 0.00 37 1011.9
20260501151404 73 223 1.0 3.0 0.00 0.00 0.00 38 1011.7
20260501150404 73 223 1.0 3.0 0.00 0.00 0.00 39 1011.7
20260501144404 71 231 1.0 3.0 0.00 0.00 0.00 40 1011.5
20260501143404 70 233 1.0 3.0 0.00 0.00 0.00 42 1011.4